Tracking 25709 objects as of 23-May-2022
HD Live streaming from Space Station
objects crossing your sky now

SPACEBEE-18

Track SPACEBEE-18 now!
10-day predictions


NORAD ID: 46304
Int'l Code: 2020-061AJ
Perigee: 517.0 km
Apogee: 518.6 km
Inclination: 97.5 °
Period: 94.8 minutes
Semi major axis: 6888 km
RCS: Unknown
Launch date: September 3, 2020
Source: United States (US)
Launch site: FRENCH GUIANA (FRGUI)
aabbcc
Your satellite tracking list
Your tracking list is empty




NASA's NSSDC Master Catalog

Two Line Element Set (TLE):
1 46304U 20061AJ  22143.45006510  .00027007  00000-0  13120-2 0  9994
2 46304  97.4516 216.0132 0001153 162.7048 197.4226 15.18415808 94740
Source of the keplerian elements: AFSPC